Weather Roundup
Issued by NWS

Home | Current Version | Previous Version | Text Only | Print | Product List | Glossary On
Versions: 1 2 3 4 5 6 7 8 9 10 11 12 13 14 15 16 17 18 19 20 21 22 23 24 25 26 27 28 29 30 31 32 33 34 35 36 37 38 39 40 41 42 43 44 45 46 47 48 49 50
374
NZUS93 KARX 061810
HRRWXR

CURRENT HOURLY OBSERVATIONS ACROSS
MUCH OF THE UPPER MISSISSIPPI VALLEY
NATIONAL WEATHER SERVICE LA CROSSE WI
1200 PM CST TUE DEC 06 2016


...SOUTHEAST MINNESOTA...


CITY           SKY/WX    TMP DP  RH WIND       PRES   REMARKS
ROCHESTER      CLOUDY    21  15  78 W23G29    29.76S WCI   5
ROCHESTER/MAYO CLOUDY    22  16  77 SW20G30   29.76S WCI   8
WINONA         PTSUNNY   25  18  74 W8G18     29.80R WCI  16
AUSTIN         CLOUDY    21  16  79 W12G23    29.78F WCI   9
ALBERT LEA     CLOUDY    27  18  69 W12G21    29.78F WCI  16
DODGE CENTER     N/A     21  16  79 W22G33    29.74F WCI   5
PRESTON        CLOUDY    21  14  76 W24       29.79R WCI   4
OWATONNA       CLOUDY    21  12  68 W24G33    29.77R WCI   4
FARIBAULT      FLURRIES  21  12  68 SW18G24   29.76F WCI   6
$$

...ELSEWHERE IN MINNESOTA...


CITY           SKY/WX    TMP DP  RH WIND       PRES   REMARKS
MINNEAPOLIS    FLURRIES  22  10  60 SW16G29   29.72F WCI   8
INTNL FALLS    CLOUDY    24  17  74 S6        29.41F HAZE    WCI  17
DULUTH         FLURRIES  22  16  78 SW22      29.51F WCI   6
RED WING       CLOUDY    25  14  63 W20       29.74F WCI  11
REDWOOD FALLS  CLOUDY    22   9  57 W30G41    29.75S WCI   4
MANKATO        FLURRIES  21  12  68 W26       29.77S WCI   4
WORTHINGTON    FLURRIES  19  11  70 W33G40    29.80F WCI  -1
FAIRMONT       FLURRIES  23  14  68 W29G37    29.80F WCI   6
$$

...SOUTHWEST WISCONSIN...


CITY           SKY/WX    TMP DP  RH WIND       PRES   REMARKS
LA CROSSE      PTSUNNY  N/A N/A N/A SW13      29.78S
PRAIRIE DU CHI MOSUNNY   30  21  69 W12G17    29.82F WCI  21
BOSCOBEL       MOSUNNY   33  21  61 W8        29.80S WCI  26
LONE ROCK      CLOUDY    33  27  78 W14       29.78S WCI  23
PLATTEVILLE    CLOUDY    32  29  90 W16G23    29.80S WCI  21
FORT MC COY    MOSUNNY   30  24  77 W13G22    29.75S WCI  20
CAMP DOUGLAS   PTSUNNY   32  28  86 SW9       29.71F WCI  24
MAUSTON-NEW LI CLOUDY    32  28  86 W7        29.71F FOG     WCI  26
VIROQUA        FAIR      27  19  72 W17G28    29.75S WCI  14
WIS DELLS      CLOUDY    32  30  92 W12       29.72F WCI  23
$$

...ELSEWHERE IN WISCONSIN...


CITY           SKY/WX    TMP DP  RH WIND       PRES   REMARKS
MILWAUKEE      CLOUDY    41  33  73 SW8       29.72F
MADISON        LGT SNOW  33  31  92 SW8       29.75S FOG     WCI  26
GREEN BAY      CLOUDY    38  35  89 SW9       29.69F FOG     WCI  31
EAU CLAIRE     CLOUDY    24  18  77 SW16G29   29.70F WCI  11
BLACK RVR FLS  MOCLDY    28  22  78 W9G16     29.73S WCI  20
MEDFORD        CLOUDY    28  23  83 SW14G20   29.63F WCI  17
WAUSAU         LGT SNOW  31  30  96 S14       29.64F VSB 1   WCI  21
WIS RAPIDS     LGT SNOW  32  31  96 W12       29.70F FOG     WCI  23
MARSHFIELD     CLOUDY    29  24  82 W17G24    29.66S WCI  17
RICE LAKE      FLURRIES  22  16  77 SW10G18   29.68S WCI  12
$$

...NORTHEAST IOWA...


CITY           SKY/WX    TMP DP  RH WIND       PRES   REMARKS
WATERLOO       SUNNY     27  18  69 W18       29.86F WCI  14
DUBUQUE        SUNNY     29  23  78 W21       29.82R WCI  16
DECORAH        MOSUNNY   25  16  68 W13G23    29.80S WCI  13
MASON CITY     PTSUNNY   23  15  71 W23G32    29.85S WCI   7
CHARLES CITY   CLOUDY    23  18  80 W21G29    29.84S WCI   8
OELWEIN        MOSUNNY   27  21  80 W15       29.84F WCI  15
$$

...ELSEWHERE IN IOWA...


CITY           SKY/WX    TMP DP  RH WIND       PRES   REMARKS
DES MOINES     MOSUNNY   30  14  51 NW18G28   29.95F WCI  18
IOWA CITY      SUNNY     34  25  69 W17       29.90F WCI  23
FORT DODGE     PTSUNNY   27  16  63 W20G29    29.90F WCI  13
MARSHALLTOWN   SUNNY     27  19  72 W21G26    29.89F WCI  13
CEDAR RAPIDS   SUNNY     30  24  78 W20G28    29.87F WCI  17
$$

...NORTHERN ILLINOIS...


CITY           SKY/WX    TMP DP  RH WIND       PRES   REMARKS
CHICAGO-OHARE  PTSUNNY   40  33  76 W7        29.74S
CHICAGO-MIDWAY MOSUNNY   40  33  76 NW5       29.74F FOG
MOLINE         MOSUNNY   36  27  69 W16G25    29.85S WCI  26
ROCKFORD       CLOUDY    35  31  85 W12       29.80S WCI  27
PEORIA         CLOUDY    37  36  96 W12       29.85S FOG     WCI  29
$$

NOTE: "FAIR" INDICATES FEW OR NO CLOUDS BELOW 12,000 FEET WITH NO
SIGNIFICANT WEATHER AND/OR OBSTRUCTIONS TO VISIBILITY. WIND
SPEEDS ARE IN MILES-PER-HOUR.




USA.gov is the U.S. government's official web portal to all federal, state and local government web resources and services.